User: anonymous   Login
Location: Cranbrook Institute of Science
(42.5830°N, 83.2450°W)
Time: 00:06:49
(UTC-04:00)
Language:

ATLAS 5 CENTAUR R/B - Orbit

View from above orbital plane
View from above orbital plane
View from above satellite
View from above satellite

Ground track
Ground track

The orbit data is extracted from the following two-line orbital elements,

1 31702U 07027B   18169.94050023 0.00000000  00000-0  00000-0 0    00
2 31702  63.3626 233.7950 0318000   8.1166 351.8833 14.18635200    05
Epoch (UTC): 18 June 2018 22:34:19
Eccentricity: 0.0318000
inclination: 63.3626°
perigee height: 601 km
apogee height: 1059 km
right ascension of ascending node: 233.7950°
argument of perigee: 8.1166°
revolutions per day: 14.18635200
mean anomaly at epoch: 351.8833°
orbit number at epoch: 0

The dashed part of the orbit path shows where the satellite is in the earth's shadow,  

DLR